Weather History for Nashville, TN

Change the Weather History Date:

Sunday, December 9, 2012

  Actual Average Record
Temperature  
Mean Temperature 64 °F 42 °F  
Max Temperature 70 °F 51 °F 73 °F (2007)
Min Temperature 57 °F 33 °F 0 °F (1917)
Degree Days  
Heating Degree Days 1 23  
Month to date heating degree days 53 199  
Since 1 July heating degree days 807 873  
Cooling Degree Days 0 0  
Month to date cooling degree days 2 0  
Year to date cooling degree days 1977 1645  
Growing Degree Days 16 (Base 50)    
Moisture  
Dew Point 58 °F    
Average Humidity 84    
Maximum Humidity 100    
Minimum Humidity 68    
Precipitation  
Precipitation 0.05 in 0.16 in 2.78 in (2008)
Month to date precipitation 0.79 1.39  
Year to date precipitation 41.90 44.40  
Snow  
Snow 0.00 in 0.00 in 1.60 in (1988)
Month to date snowfall 0.0 0.1  
Since 1 July snowfall 0.0 0.1  
Snow Depth 0.00 in    
Sea Level Pressure  
Sea Level Pressure 29.89 in    
Wind  
Wind Speed 12 mph (South)    
Max Wind Speed 23 mph    
Max Gust Speed 29 mph    
Visibility 8 miles    
Events Rain , Thunderstorm    
T = Trace of Precipitation, MM = Missing Value Source: NWS Daily Summary

Daily Weather History Graph

Daily Weather History Graph

Search for Another Location

Airport:

Trip Planner

Search our weather history database for the weather conditions in past years. The results will help you decide how hot, cold, wet, or windy it might be!

Date:

Astronomy

Dec. 09, 2012 Rise Set
Actual Time 6:46 AM CST 4:32 PM CST
Civil Twilight 6:17 AM CST 5:00 PM CST
Nautical Twilight 5:45 AM CST 5:32 PM CST
Astronomical Twilight 5:14 AM CST 6:04 PM CST
Moon 2:24 AM CST (12/9) 1:34 PM CST (12/9)
Length of Visible Light 10h 42m
Length of Day
9h 45m
Waning Crescent, 18% of the Moon is Illuminated
Dec 9
Waning Crescent
Dec 13
New
Dec 19
First Quarter
Dec 28
Full
Jan 4
Last Quarter

Hourly Weather History & Observations

Time (CST) Temp. Dew Point Humidity Pressure Visibility Wind Dir Wind Speed Gust Speed Precip Events Conditions
12:36 AM 57.2 °F 55.4 °F 94% 29.97 in 5.0 mi Calm Calm - N/A   Overcast
12:53 AM 57.0 °F 55.9 °F 96% 29.95 in 3.0 mi Calm Calm - N/A   Overcast
1:11 AM 57.2 °F 57.2 °F 100% 29.96 in 4.0 mi Calm Calm - 0.00 in Rain Light Rain
1:50 AM 57.2 °F 55.4 °F 94% 29.95 in 6.0 mi South 4.6 mph - 0.00 in   Overcast
1:53 AM 57.0 °F 55.9 °F 96% 29.94 in 6.0 mi South 4.6 mph - 0.00 in   Mostly Cloudy
2:27 AM 57.2 °F 57.2 °F 100% 29.95 in 6.0 mi South 4.6 mph - N/A   Overcast
2:44 AM 57.2 °F 57.2 °F 100% 29.94 in 6.0 mi SSE 3.5 mph - N/A   Overcast
2:53 AM 57.9 °F 57.0 °F 97% 29.94 in 6.0 mi South 4.6 mph - N/A   Mostly Cloudy
3:39 AM 59.0 °F 57.2 °F 94% 29.94 in 6.0 mi South 6.9 mph - 0.05 in Rain Light Rain
3:53 AM 59.0 °F 57.9 °F 96% 29.94 in 6.0 mi South 6.9 mph - 0.05 in   Overcast
4:25 AM 60.8 °F 59.0 °F 94% 29.94 in 7.0 mi SSE 6.9 mph - N/A   Overcast
4:53 AM 60.1 °F 59.0 °F 96% 29.92 in 7.0 mi South 8.1 mph - N/A   Overcast
5:14 AM 60.8 °F 59.0 °F 94% 29.93 in 7.0 mi South 11.5 mph - N/A   Mostly Cloudy
5:42 AM 60.8 °F 59.0 °F 94% 29.93 in 6.0 mi South 12.7 mph - N/A   Overcast
5:53 AM 61.0 °F 59.0 °F 93% 29.91 in 6.0 mi South 13.8 mph - N/A   Overcast
6:53 AM 62.1 °F 59.0 °F 90% 29.91 in 7.0 mi South 10.4 mph - N/A   Overcast
7:09 AM 62.6 °F 59.0 °F 88% 29.93 in 6.0 mi South 12.7 mph 18.4 mph N/A   Mostly Cloudy
7:33 AM 62.6 °F 59.0 °F 88% 29.94 in 7.0 mi South 13.8 mph 20.7 mph N/A   Overcast
7:53 AM 63.0 °F 60.1 °F 90% 29.93 in 8.0 mi South 16.1 mph - N/A   Overcast
8:53 AM 64.0 °F 60.1 °F 87% 29.94 in 9.0 mi SSW 11.5 mph - 0.00 in   Overcast
9:31 AM 64.4 °F 60.8 °F 88% 29.95 in 10.0 mi SSW 15.0 mph 23.0 mph N/A   Overcast
9:53 AM 64.9 °F 60.1 °F 84% 29.94 in 10.0 mi South 17.3 mph 24.2 mph 0.00 in   Overcast
10:20 AM 66.2 °F 60.8 °F 83% 29.95 in 10.0 mi SSW 15.0 mph 23.0 mph N/A   Overcast
10:53 AM 64.9 °F 60.1 °F 84% 29.95 in 10.0 mi SW 12.7 mph 18.4 mph N/A   Overcast
11:26 AM 66.2 °F 60.8 °F 83% 29.93 in 10.0 mi SSW 12.7 mph - 0.00 in   Mostly Cloudy
11:53 AM 68.0 °F 61.0 °F 78% 29.91 in 10.0 mi SSW 15.0 mph 19.6 mph 0.00 in   Mostly Cloudy
12:53 PM 69.1 °F 60.1 °F 73% 29.88 in 10.0 mi SSW 11.5 mph - N/A   Mostly Cloudy
1:22 PM 69.8 °F 60.8 °F 73% 29.89 in 10.0 mi SSW 15.0 mph 21.9 mph N/A   Mostly Cloudy
1:48 PM 69.8 °F 60.8 °F 73% 29.88 in 10.0 mi SSW 12.7 mph - N/A   Mostly Cloudy
1:53 PM 69.1 °F 60.1 °F 73% 29.87 in 10.0 mi South 13.8 mph - N/A   Mostly Cloudy
2:53 PM 70.0 °F 59.0 °F 68% 29.86 in 10.0 mi SSW 13.8 mph 18.4 mph N/A   Overcast
3:53 PM 68.0 °F 57.9 °F 70% 29.85 in 10.0 mi South 10.4 mph - N/A   Mostly Cloudy
4:53 PM 66.9 °F 57.0 °F 70% 29.83 in 10.0 mi South 13.8 mph - N/A   Overcast
5:53 PM 66.0 °F 55.9 °F 70% 29.83 in 10.0 mi South 16.1 mph - N/A   Overcast
6:53 PM 64.9 °F 55.9 °F 73% 29.84 in 10.0 mi South 16.1 mph - N/A   Overcast
7:53 PM 64.0 °F 55.0 °F 73% 29.83 in 10.0 mi South 19.6 mph 27.6 mph N/A   Overcast
8:53 PM 64.0 °F 55.0 °F 73% 29.81 in 10.0 mi South 13.8 mph - N/A   Overcast
9:53 PM 63.0 °F 55.9 °F 78% 29.79 in 10.0 mi South 15.0 mph - N/A   Overcast
10:27 PM 64.4 °F 55.4 °F 73% 29.79 in 10.0 mi South 12.7 mph - N/A   Mostly Cloudy
10:53 PM 64.0 °F 55.9 °F 75% 29.77 in 10.0 mi South 15.0 mph - N/A   Overcast
11:53 PM 63.0 °F 57.9 °F 84% 29.73 in 10.0 mi South 17.3 mph 28.8 mph 0.00 in Rain , Thunderstorm Light Thunderstorms and Rain